| time (UTC) | temp F | wind direction | speed knots | gust knots | rain 1hr in | rain 24hr in | rain mn in | humidity % | barometer mb |
| 20260506073104 | 59 | 116 | 0.9 | 3.5 | 0.00 | 0.00 | 0.00 | 79 | |
| 20260506050134 | 47 | 126 | 0.0 | 1.7 | 0.00 | 0.00 | 0.00 | 96 | |
| 20260506043105 | 47 | 135 | 0.0 | 2.6 | 0.00 | 0.00 | 0.00 | 96 | |
| 20260506040034 | 47 | 150 | 0.0 | 2.6 | 0.00 | 0.00 | 0.00 | 97 | |
| 20260506033106 | 46 | 113 | 0.9 | 2.6 | 0.00 | 0.00 | 0.00 | 97 | |
| 20260506030036 | 47 | 110 | 0.0 | 1.7 | 0.00 | 0.00 | 0.00 | 96 | |
| 20260506023107 | 47 | 129 | 0.9 | 2.6 | 0.00 | 0.00 | 0.00 | 96 | |
| 20260506020037 | 48 | 136 | 0.9 | 3.5 | 0.00 | 0.00 | 0.00 | 96 | |
| 20260506013108 | 48 | 131 | 0.0 | 0.9 | 0.00 | 0.00 | 0.00 | 96 | |
| 20260506010038 | 49 | 122 | 0.0 | 1.7 | 0.00 | 0.00 | 0.00 | 95 | |
| 20260506003108 | 50 | 0.0 | 0.9 | 0.00 | 0.00 | 0.00 | 93 | ||
| 20260506000038 | 52 | 149 | 0.0 | 2.6 | 0.00 | 0.00 | 0.00 | 91 | |
| 20260505233131 | 52 | 150 | 0.9 | 3.5 | 0.00 | 0.00 | 0.00 | 92 | |
| 20260505230039 | 51 | 118 | 0.0 | 1.7 | 0.00 | 0.00 | 0.00 | 94 | |
| 20260505223110 | 52 | 118 | 0.0 | 1.7 | 0.00 | 0.00 | 0.00 | 94 | |
| 20260505220040 | 52 | 151 | 0.0 | 1.7 | 0.00 | 0.00 | 0.00 | 94 | |
| 20260505213111 | 52 | 155 | 0.0 | 0.9 | 0.00 | 0.00 | 0.00 | 95 | |
| 20260505210040 | 52 | 0.0 | 0.0 | 0.00 | 0.00 | 0.00 | 95 | ||
| 20260505203112 | 53 | 0.0 | 0.9 | 0.00 | 0.00 | 0.00 | 94 | ||
| 20260505200042 | 54 | 166 | 0.0 | 1.7 | 0.00 | 0.00 | 0.00 | 93 | |
| 20260505193112 | 55 | 184 | 0.9 | 2.6 | 0.00 | 0.00 | 0.00 | 92 | |
| 20260505190042 | 56 | 171 | 0.9 | 2.6 | 0.00 | 0.00 | 0.00 | 90 | |
| 20260505183134 | 58 | 241 | 1.7 | 6.1 | 0.00 | 0.00 | 0.00 | 88 | |
| 20260505180103 | 58 | 237 | 1.7 | 5.2 | 0.00 | 0.00 | 0.00 | 88 | |
| 20260505173134 | 58 | 229 | 0.9 | 6.1 | 0.00 | 0.00 | 0.00 | 87 | |
| 20260505170104 | 59 | 163 | 0.9 | 5.2 | 0.00 | 0.00 | 0.00 | 85 | |
| 20260505163116 | 59 | 255 | 1.7 | 5.2 | 0.00 | 0.00 | 0.00 | 84 | |
| 20260505153136 | 63 | 257 | 2.6 | 12.2 | 0.00 | 0.00 | 0.00 | 70 | |
| 20260505150106 | 66 | 272 | 2.6 | 9.6 | 0.00 | 0.00 | 0.00 | 62 | |
| 20260505123018 | 74 | 181 | 0.9 | 3.5 | 0.00 | 0.00 | 0.00 | 40 | |
| 20260505120048 | 75 | 178 | 0.9 | 3.5 | 0.00 | 0.00 | 0.00 | 40 | |
| 20260505113018 | 76 | 164 | 0.9 | 5.2 | 0.00 | 0.00 | 0.00 | 39 | |
| 20260505100050 | 73 | 140 | 0.9 | 3.5 | 0.00 | 0.00 | 0.00 | 48 | |
| 20260505093020 | 72 | 138 | 0.9 | 2.6 | 0.00 | 0.00 | 0.00 | 53 | |
| 20260505090051 | 72 | 135 | 0.9 | 3.5 | 0.00 | 0.00 | 0.00 | 56 | |
| 20260505083021 | 70 | 115 | 0.9 | 3.5 | 0.00 | 0.00 | 0.00 | 60 |